TimeEST,TemperatureF,Dew PointF,Humidity,Sea Level PressureIn,VisibilityMPH,Wind Direction,Wind SpeedMPH,Gust SpeedMPH,PrecipitationIn,Events,Conditions,WindDirDegrees,DateUTC
12:53 AM,43.0,36.0,76,30.21,10.0,Calm,Calm,-,N/A,,Clear,0,2012-11-11 05:53:00
1:53 AM,41.0,35.1,79,30.20,10.0,SSE,3.5,-,N/A,,Clear,160,2012-11-11 06:53:00
2:53 AM,44.1,35.1,71,30.21,10.0,SSE,3.5,-,N/A,,Clear,160,2012-11-11 07:53:00
3:53 AM,39.9,33.1,77,30.23,10.0,SSE,3.5,-,N/A,,Clear,160,2012-11-11 08:53:00
4:53 AM,42.1,34.0,73,30.25,10.0,SSE,4.6,-,N/A,,Clear,150,2012-11-11 09:53:00
5:53 AM,41.0,33.1,73,30.27,10.0,SSE,4.6,-,N/A,,Clear,150,2012-11-11 10:53:00
6:53 AM,42.1,34.0,73,30.31,10.0,SSE,5.8,-,N/A,,Clear,160,2012-11-11 11:53:00
7:53 AM,45.0,36.0,71,30.32,10.0,SSE,5.8,-,N/A,,Clear,160,2012-11-11 12:53:00
8:53 AM,54.0,37.9,55,30.32,10.0,SE,6.9,-,N/A,,Clear,140,2012-11-11 13:53:00
11:53 AM,66.9,36.0,32,30.28,10.0,SSW,13.8,24.2,N/A,,Clear,210,2012-11-11 16:53:00
12:53 PM,66.9,35.1,31,30.25,10.0,SSW,10.4,-,N/A,,Clear,210,2012-11-11 17:53:00
1:53 PM,66.9,33.1,28,30.23,10.0,South,15.0,20.7,N/A,,Clear,190,2012-11-11 18:53:00
2:53 PM,66.9,34.0,30,30.20,10.0,South,8.1,-,N/A,,Clear,180,2012-11-11 19:53:00
3:53 PM,68.0,32.0,26,30.19,10.0,South,10.4,-,N/A,,Clear,180,2012-11-11 20:53:00
4:53 PM,63.0,35.1,35,30.19,10.0,SSE,5.8,-,N/A,,Clear,160,2012-11-11 21:53:00
5:53 PM,59.0,34.0,39,30.18,10.0,SSE,5.8,-,N/A,,Clear,160,2012-11-11 22:53:00
6:53 PM,60.1,33.1,36,30.17,10.0,SSE,6.9,-,N/A,,Clear,150,2012-11-11 23:53:00
8:53 PM,55.9,35.1,45,30.15,10.0,SE,6.9,-,N/A,,Clear,140,2012-11-12 01:53:00
9:53 PM,59.0,32.0,36,30.14,10.0,SE,9.2,-,N/A,,Clear,140,2012-11-12 02:53:00
10:53 PM,57.9,33.1,39,30.14,10.0,SE,11.5,-,N/A,,Clear,140,2012-11-12 03:53:00
11:53 PM,63.0,33.1,33,30.12,10.0,South,12.7,-,N/A,,Clear,180,2012-11-12 04:53:00